AFR84E LFPG-KSFO

Flight info

Callsign AFR84E
Flight time N/A
Altitude 30000
Route ATREX DCT VESAN DCT RATUK DCT SOVAT/N0475F340 L613 SANDY DCT OKSAW DCT TEWXI DCT LIPGO DCT INKUR DCT PIKIL/M083F340 DCT 58N020W 61N030W 63N040W 65N050W/M083F360 DCT EPMAN/N0481F360 DCT 6530N07000W 6430N08000W 6230N09000W DCT YEK DCT YVC/N0477F380 Q959 MEETO Q896 YQL J540 STIGS DCT KS09K DCT KU87I DCT KS75G DCT KO60E DCT MRRLO BDEGA4
Aircraft B77W/H-SDE1E2E3FGHIJ2J3J4J5M1RWXY/LB1D1

Departure

Time 2026-05-07 23:00
Airport Charles de Gaulle International Airport (LFPG)

Arrival

Time N/A
Airport San Francisco International Airport (KSFO)
Time Latitude Longitude Altitude Speed Heading
2026-05-07 22:29 49.00186 2.56661 359 ft 0 kts 12°
2026-05-07 22:50 49.00162 2.56653 366 ft 4 kts 12°
2026-05-07 22:50 49.00141 2.56647 366 ft 4 kts 357°
2026-05-07 22:50 49.00125 2.56651 365 ft 4 kts 313°
2026-05-07 22:51 49.00118 2.56673 367 ft 4 kts 272°
2026-05-07 22:51 49.00119 2.56712 359 ft 4 kts 265°
2026-05-07 22:51 49.00121 2.56750 359 ft 1 kts 265°
2026-05-07 22:51 49.00121 2.56751 359 ft 0 kts 265°
2026-05-07 22:53 49.00121 2.56747 359 ft 1 kts 265°
2026-05-07 22:54 49.00120 2.56734 365 ft 2 kts 265°
2026-05-07 22:54 49.00119 2.56713 361 ft 2 kts 265°
2026-05-07 22:54 49.00118 2.56684 367 ft 3 kts 265°
2026-05-07 22:54 49.00116 2.56647 365 ft 4 kts 265°
2026-05-07 22:55 49.00111 2.56564 359 ft 9 kts 265°
2026-05-07 22:55 49.00106 2.56459 359 ft 11 kts 265°
2026-05-07 22:55 49.00100 2.56342 364 ft 12 kts 265°
2026-05-07 22:55 49.00093 2.56213 362 ft 13 kts 265°
2026-05-07 22:56 49.00086 2.56072 365 ft 14 kts 265°
2026-05-07 22:56 49.00078 2.55920 361 ft 15 kts 266°
2026-05-07 22:56 49.00075 2.55757 365 ft 16 kts 268°
2026-05-07 22:56 49.00012 2.55666 362 ft 12 kts 174°
2026-05-07 22:57 48.99940 2.55723 365 ft 12 kts 128°
2026-05-07 22:57 48.99873 2.55799 365 ft 13 kts 169°
2026-05-07 22:57 48.99789 2.55801 366 ft 9 kts 180°
2026-05-07 22:57 48.99718 2.55811 360 ft 11 kts 174°
2026-05-07 22:58 48.99649 2.55818 358 ft 7 kts 180°
2026-05-07 22:58 48.99627 2.55819 358 ft 3 kts 176°
2026-05-07 22:58 48.99611 2.55840 365 ft 3 kts 125°
2026-05-07 22:58 48.99604 2.55890 363 ft 9 kts 93°
2026-05-07 22:59 48.99605 2.55924 362 ft 0 kts 86°
2026-05-07 22:59 48.99606 2.55937 360 ft 6 kts 86°
2026-05-07 22:59 48.99619 2.56200 361 ft 54 kts 85°
2026-05-07 22:59 48.99669 2.57131 358 ft 121 kts 85°
2026-05-07 23:00 48.99753 2.58692 358 ft 173 kts 85°
2026-05-07 23:00 48.99847 2.60651 655 ft 187 kts 86°
2026-05-07 23:00 48.99929 2.62643 1276 ft 190 kts 86°
2026-05-07 23:00 49.00029 2.64690 1829 ft 195 kts 83°
2026-05-07 23:01 49.00147 2.66797 2224 ft 210 kts 84°
2026-05-07 23:01 49.00278 2.69139 2410 ft 234 kts 84°
2026-05-07 23:01 49.00426 2.71704 2831 ft 249 kts 84°
2026-05-07 23:01 49.00571 2.74383 3433 ft 257 kts 84°
2026-05-07 23:02 49.00712 2.77090 4115 ft 261 kts 85°
2026-05-07 23:02 49.00855 2.79870 4830 ft 266 kts 85°
2026-05-07 23:02 49.00997 2.82619 5501 ft 268 kts 83°
2026-05-07 23:02 49.01572 2.85308 5946 ft 273 kts 53°
2026-05-07 23:03 49.02997 2.87187 6617 ft 273 kts 24°
2026-05-07 23:03 49.04823 2.87808 7261 ft 271 kts 356°
2026-05-07 23:03 49.06654 2.87174 7868 ft 271 kts 337°
2026-05-07 23:03 49.08399 2.86019 8444 ft 276 kts 335°
2026-05-07 23:04 49.10161 2.84803 9120 ft 279 kts 335°
2026-05-07 23:04 49.11929 2.83566 9817 ft 281 kts 335°
2026-05-07 23:04 49.13717 2.82313 10401 ft 287 kts 335°
2026-05-07 23:04 49.15596 2.80998 10602 ft 308 kts 335°
2026-05-07 23:05 49.17607 2.79593 10782 ft 329 kts 335°
2026-05-07 23:05 49.19771 2.78083 10963 ft 352 kts 335°
2026-05-07 23:05 49.22047 2.76498 11388 ft 365 kts 335°
2026-05-07 23:05 49.24395 2.74867 12046 ft 374 kts 335°
2026-05-07 23:06 49.26773 2.73216 12936 ft 377 kts 336°
2026-05-07 23:06 49.29178 2.71547 13825 ft 381 kts 336°
2026-05-07 23:06 49.31603 2.69863 14588 ft 385 kts 336°
2026-05-07 23:06 49.34025 2.68180 15345 ft 390 kts 336°
2026-05-07 23:07 49.36510 2.66451 16128 ft 394 kts 335°
2026-05-07 23:07 49.39023 2.64700 16894 ft 398 kts 335°
2026-05-07 23:07 49.41552 2.62936 17687 ft 402 kts 335°
2026-05-07 23:07 49.44113 2.61146 18446 ft 406 kts 335°
2026-05-07 23:08 49.46695 2.59337 19097 ft 410 kts 335°
2026-05-07 23:08 49.49305 2.57507 19721 ft 415 kts 335°
2026-05-07 23:08 49.51959 2.55649 20354 ft 419 kts 335°
2026-05-07 23:08 49.54622 2.53780 20976 ft 423 kts 335°
2026-05-07 23:09 49.57310 2.51889 21595 ft 427 kts 335°
2026-05-07 23:09 49.60034 2.49968 22220 ft 432 kts 335°
2026-05-07 23:09 49.62748 2.48058 22792 ft 436 kts 335°
2026-05-07 23:09 49.65522 2.46103 23378 ft 440 kts 335°
2026-05-07 23:10 49.68323 2.44122 23897 ft 445 kts 335°
2026-05-07 23:10 49.71139 2.42127 24419 ft 447 kts 335°
2026-05-07 23:10 49.73981 2.40115 24930 ft 450 kts 335°
2026-05-07 23:10 49.76830 2.38097 25438 ft 453 kts 335°
2026-05-07 23:11 49.79714 2.36094 25925 ft 456 kts 336°
2026-05-07 23:11 49.82678 2.34279 26385 ft 459 kts 339°
2026-05-07 23:11 49.85689 2.32575 26845 ft 462 kts 339°
2026-05-07 23:11 49.88731 2.30889 27292 ft 465 kts 339°
2026-05-07 23:12 49.91784 2.29186 27730 ft 468 kts 339°
2026-05-07 23:12 49.94852 2.27447 28183 ft 470 kts 339°
2026-05-07 23:12 49.97919 2.25684 28772 ft 469 kts 339°
2026-05-07 23:12 50.00964 2.23917 29432 ft 466 kts 339°
2026-05-07 23:13 50.03995 2.22149 30056 ft 465 kts 339°
2026-05-07 23:13 50.10092 2.18580 30093 ft 466 kts 338°
2026-05-07 23:14 50.16127 2.15041 30087 ft 463 kts 338°
2026-05-07 23:14 50.22160 2.11492 30097 ft 464 kts 338°
2026-05-07 23:15 50.28207 2.07925 30097 ft 465 kts 338°
2026-05-07 23:15 50.34237 2.04247 30076 ft 465 kts 334°
2026-05-07 23:16 50.39742 1.99131 30089 ft 462 kts 323°
2026-05-07 23:16 50.44657 1.92636 30087 ft 461 kts 318°
2026-05-07 23:17 50.49466 1.85958 30079 ft 461 kts 318°
2026-05-07 23:17 50.54289 1.79313 30074 ft 461 kts 318°
2026-05-07 23:18 50.59125 1.72670 30075 ft 461 kts 318°
2026-05-07 23:18 50.63955 1.66023 30080 ft 461 kts 318°
2026-05-07 23:19 50.68750 1.59407 30081 ft 461 kts 318°
2026-05-07 23:19 50.73570 1.52731 30083 ft 461 kts 318°
2026-05-07 23:20 50.78392 1.46035 30088 ft 461 kts 318°
2026-05-07 23:20 50.83287 1.39234 30409 ft 472 kts 318°
2026-05-07 23:20 50.85749 1.35806 30774 ft 472 kts 317°
2026-05-07 23:21 50.88213 1.32369 31211 ft 471 kts 317°
2026-05-07 23:21 50.90664 1.28944 31677 ft 469 kts 317°
2026-05-07 23:21 50.93104 1.25528 32120 ft 467 kts 317°
2026-05-07 23:21 50.95501 1.22162 32508 ft 466 kts 317°
2026-05-07 23:22 50.97928 1.18750 32892 ft 466 kts 317°
2026-05-07 23:22 51.00354 1.15339 33272 ft 465 kts 317°
2026-05-07 23:22 51.02768 1.11931 33648 ft 463 kts 316°
2026-05-07 23:22 51.04964 1.08214 33943 ft 461 kts 307°
2026-05-07 23:23 51.06807 1.04025 34052 ft 462 kts 300°
2026-05-07 23:23 51.09498 0.94792 34102 ft 458 kts 290°
2026-05-07 23:24 51.11759 0.85354 34103 ft 456 kts 290°
2026-05-07 23:24 51.14016 0.75929 34096 ft 455 kts 290°
2026-05-07 23:24 51.15151 0.71231 33938 ft 454 kts 290°
2026-05-07 23:25 51.16288 0.66535 33916 ft 455 kts 290°
2026-05-07 23:25 51.18569 0.57127 33860 ft 455 kts 290°
2026-05-07 23:26 51.20848 0.47694 33862 ft 456 kts 290°
2026-05-07 23:26 51.23122 0.38241 33858 ft 457 kts 290°
2026-05-07 23:27 51.26528 0.23999 33910 ft 459 kts 290°
2026-05-07 23:27 51.27663 0.19230 34099 ft 459 kts 290°
2026-05-07 23:27 51.28796 0.14460 34102 ft 459 kts 290°
2026-05-07 23:28 51.31056 0.04915 34104 ft 459 kts 290°
2026-05-07 23:28 51.33310 -0.04645 34101 ft 459 kts 289°
2026-05-07 23:29 51.35553 -0.14207 34081 ft 459 kts 289°
2026-05-07 23:29 51.37790 -0.23780 34078 ft 460 kts 288°
2026-05-07 23:30 51.39645 -0.31752 34083 ft 461 kts 288°
2026-05-07 23:30 51.42246 -0.42980 34081 ft 462 kts 288°
2026-05-07 23:31 51.44472 -0.52641 34081 ft 463 kts 288°
2026-05-07 23:31 51.46323 -0.60703 34079 ft 463 kts 288°
2026-05-07 23:32 51.48539 -0.70397 34081 ft 463 kts 288°
2026-05-07 23:32 51.50749 -0.80112 34079 ft 463 kts 288°
2026-05-07 23:33 51.52948 -0.89820 34082 ft 462 kts 288°
2026-05-07 23:33 51.55137 -0.99535 34077 ft 462 kts 288°
2026-05-07 23:34 51.57322 -1.09272 34081 ft 462 kts 288°
2026-05-07 23:34 51.59497 -1.19013 34078 ft 462 kts 287°
2026-05-07 23:35 51.61662 -1.28755 34080 ft 463 kts 287°
2026-05-07 23:35 51.63817 -1.38503 34077 ft 463 kts 287°
2026-05-07 23:36 51.65970 -1.48286 34076 ft 463 kts 287°
2026-05-07 23:36 51.68098 -1.58008 34078 ft 463 kts 287°
2026-05-07 23:37 51.70249 -1.67791 34081 ft 463 kts 289°
2026-05-07 23:37 51.73014 -1.77227 34064 ft 466 kts 295°
2026-05-07 23:38 51.75963 -1.86535 34064 ft 466 kts 294°
2026-05-07 23:38 51.78863 -1.95905 34070 ft 466 kts 294°
2026-05-07 23:39 51.81838 -2.05238 34064 ft 468 kts 298°
2026-05-07 23:39 51.85264 -2.14125 34068 ft 468 kts 300°
2026-05-07 23:40 51.88747 -2.23030 34060 ft 469 kts 300°
2026-05-07 23:40 51.92202 -2.31974 34060 ft 468 kts 299°
2026-05-07 23:41 51.95632 -2.40947 34060 ft 468 kts 299°
2026-05-07 23:41 51.99053 -2.49951 34064 ft 468 kts 299°
2026-05-07 23:42 52.02462 -2.58951 34072 ft 468 kts 299°
2026-05-07 23:42 52.05866 -2.67969 34044 ft 468 kts 299°
2026-05-07 23:43 52.09241 -2.76940 34042 ft 468 kts 299°
2026-05-07 23:43 52.12629 -2.85977 34072 ft 467 kts 299°
2026-05-07 23:44 52.16012 -2.95034 34053 ft 467 kts 299°
2026-05-07 23:44 52.19386 -3.04099 34045 ft 467 kts 298°
2026-05-07 23:45 52.22743 -3.13149 34051 ft 466 kts 298°
2026-05-07 23:45 52.26093 -3.22212 34053 ft 466 kts 298°
2026-05-07 23:46 52.29430 -3.31273 34053 ft 466 kts 298°
2026-05-07 23:46 52.32761 -3.40352 34053 ft 465 kts 298°
2026-05-07 23:47 52.36078 -3.49426 34052 ft 465 kts 298°
2026-05-07 23:47 52.39371 -3.58465 34049 ft 465 kts 298°
2026-05-07 23:48 52.42672 -3.67558 34049 ft 464 kts 298°
2026-05-07 23:48 52.45965 -3.76662 34048 ft 463 kts 298°
2026-05-07 23:49 52.49241 -3.85757 34045 ft 463 kts 298°
2026-05-07 23:49 52.52510 -3.94861 34048 ft 462 kts 298°
2026-05-07 23:50 52.55763 -4.03953 34043 ft 462 kts 298°
2026-05-07 23:50 52.58991 -4.13008 34030 ft 461 kts 298°
2026-05-07 23:51 52.62224 -4.22110 34045 ft 460 kts 298°
2026-05-07 23:51 52.65450 -4.31226 34045 ft 460 kts 298°
2026-05-07 23:52 52.68664 -4.40341 34032 ft 460 kts 298°
2026-05-07 23:52 52.71855 -4.49424 34033 ft 459 kts 298°
2026-05-07 23:53 52.75046 -4.58543 34036 ft 459 kts 298°
2026-05-07 23:53 52.78234 -4.67683 34038 ft 459 kts 298°
2026-05-07 23:54 52.81410 -4.76825 34038 ft 459 kts 297°
2026-05-07 23:54 52.84578 -4.85975 34033 ft 459 kts 297°
2026-05-07 23:55 52.87743 -4.95155 34032 ft 458 kts 297°
2026-05-07 23:55 52.90891 -5.04316 34030 ft 458 kts 297°
2026-05-07 23:56 52.94032 -5.13492 34028 ft 457 kts 297°
2026-05-07 23:56 52.97163 -5.22675 34023 ft 457 kts 297°
2026-05-07 23:57 53.00286 -5.31873 34021 ft 456 kts 297°
2026-05-07 23:57 53.03391 -5.41055 34019 ft 456 kts 297°
2026-05-07 23:58 53.06466 -5.50193 34016 ft 455 kts 296°
2026-05-07 23:58 53.09287 -5.59603 34018 ft 454 kts 294°
2026-05-07 23:59 53.12025 -5.69061 34013 ft 454 kts 294°
2026-05-07 23:59 53.14770 -5.78559 34011 ft 454 kts 294°
2026-05-08 00:00 53.17512 -5.88040 34003 ft 454 kts 293°
2026-05-08 00:00 53.20252 -5.97531 34002 ft 454 kts 293°
2026-05-08 00:01 53.22963 -6.06957 34001 ft 453 kts 293°
2026-05-08 00:01 53.25684 -6.16459 33994 ft 453 kts 293°
2026-05-08 00:02 53.28393 -6.25961 33997 ft 453 kts 292°
2026-05-08 00:02 53.31094 -6.35472 33999 ft 452 kts 292°
2026-05-08 00:03 53.33782 -6.44976 33997 ft 452 kts 292°
2026-05-08 00:03 53.36459 -6.54481 34000 ft 451 kts 292°
2026-05-08 00:04 53.39127 -6.63996 33994 ft 451 kts 292°
2026-05-08 00:04 53.41790 -6.73525 34002 ft 451 kts 292°
2026-05-08 00:05 53.44427 -6.83001 34000 ft 451 kts 292°
2026-05-08 00:05 53.47069 -6.92539 33997 ft 451 kts 292°
2026-05-08 00:06 53.49705 -7.02093 33997 ft 450 kts 291°
2026-05-08 00:06 53.52328 -7.11645 33999 ft 450 kts 291°
2026-05-08 00:07 53.54521 -7.19661 33999 ft 450 kts 291°